Location: Cosy Dell
(34.2789°N, 117.4537°W)
Time: 12:16:20
(UTC+00:00)

Cosmos 1833 Rocket - Pass Details

Date: 14 July 2020
Orbit: 832 x 840 km, 71.0° (Epoch: 09 August)

Event Time Altitude Azimuth Distance (km) Brightness Sun altitude
Exits shadow 09:13:30 53° 66° (ENE) 1,019 3.2 -31.2°
Drops below altitude 10° 09:18:05 10° 29° (NNE) 2,446 6.0 -30.8°
Sets 09:20:33 0° 26° (NNE) 3,384 7.0 -30.6°
